CW5212 Weather Reports


time (UTC)temp
F
wind
direction
speed
knots
gust
knots
rain 1hr
in
rain 24hr
in
rain mn
in
humidity
%
barometer
mb
20260505004555 67 289 2.6 10.4 0.00 0.00 0.00 20 936.0
20260505003056 67 313 2.6 7.0 0.00 0.00 0.00 21 936.0
20260505001554 67 305 4.3 12.2 0.00 0.00 0.00 21 936.2
20260505000108 68 296 4.3 10.4 0.00 0.00 0.00 19 936.1
20260505000002 68 263 3.5 10.4 0.00 0.00 0.00 20 936.1
20260504234508 67 269 7.0 13.0 0.00 0.00 0.00 19 936.2
20260504233010 68 261 9.6 13.9 0.00 0.00 0.00 19 936.2
20260504231558 68 271 7.8 14.8 0.00 0.00 0.00 17 936.3
20260504230059 67 305 6.1 13.0 0.00 0.00 0.00 17 936.2
20260504224530 67 250 7.8 13.0 0.00 0.00 0.00 17 936.5
20260504223013 67 219 4.3 13.0 0.00 0.00 0.00 17 936.5
20260504221548 68 277 7.0 13.9 0.00 0.00 0.00 19 936.6
20260504220038 68 312 5.2 14.8 0.00 0.00 0.00 19 936.8
20260504214510 68 273 7.8 13.9 0.00 0.00 0.00 19 936.9
20260504213042 67 298 3.5 15.6 0.00 0.00 0.00 19 937.2
20260504211528 68 265 7.0 13.0 0.00 0.00 0.00 20 937.2
20260504210058 67 328 7.0 12.2 0.00 0.00 0.00 21 937.4
20260504204535 67 254 4.3 14.8 0.00 0.00 0.00 22 937.5
20260504203012 67 302 7.0 14.8 0.00 0.00 0.00 22 937.6
20260504201601 67 219 8.7 14.8 0.00 0.00 0.00 25 937.7
20260504200029 66 265 4.3 13.0 0.00 0.00 0.00 27 937.8
20260504194506 66 269 6.1 10.4 0.00 0.00 0.00 27 937.9
20260504193043 65 211 4.3 11.3 0.00 0.00 0.00 27 938.1
20260504191523 66 276 7.8 12.2 0.00 0.00 0.00 27 938.4
20260504190115 66 251 7.8 12.2 0.00 0.00 0.00 28 938.5
20260504184535 65 262 6.1 11.3 0.00 0.00 0.00 26 938.7
20260504183014 65 305 2.6 10.4 0.00 0.00 0.00 28 938.8
20260504181548 63 246 2.6 10.4 0.00 0.00 0.00 27 938.9
20260504180026 64 280 2.6 12.2 0.00 0.00 0.00 28 939.1
20260504174507 62 157 5.2 9.6 0.00 0.00 0.00 27 939.4
20260504173040 62 151 3.5 9.6 0.00 0.00 0.00 28 939.4
20260504171520 61 149 4.3 7.8 0.00 0.00 0.00 28 939.5
20260504140110 55 169 0.9 2.6 0.00 0.00 0.00 33 939.7
20260504081544 53 63 0.0 2.6 0.00 0.00 0.00 32 940.1
20260504044525 56 110 7.8 10.4 0.00 0.00 0.00 29 941.2
20260504043004 57 110 7.0 9.6 0.00 0.00 0.00 28 941.2
20260504041551 57 121 6.1 11.3 0.00 0.00 0.00 31 941.2
20260504040049 57 117 7.0 9.6 0.00 0.00 0.00 26 941.1
20260504034551 58 111 5.2 8.7 0.00 0.00 0.00 26 941.1
20260504033108 58 108 6.1 7.8 0.00 0.00 0.00 26 941.1
20260504031604 58 109 6.1 8.7 0.00 0.00 0.00 25 941.1
20260504031506 58 116 6.1 8.7 0.00 0.00 0.00 25 941.1
20260504030006 58 85 5.2 8.7 0.00 0.00 0.00 26 941.0
20260504024528 58 136 5.2 7.8 0.00 0.00 0.00 26 941.0
20260504023101 59 107 3.5 7.0 0.00 0.00 0.00 26 941.0
20260504023007 59 107 3.5 7.0 0.00 0.00 0.00 25 941.1
20260504021506 60 117 4.3 7.0 0.00 0.00 0.00 25 941.1
20260504020006 61 117 3.5 7.0 0.00 0.00 0.00 24 941.1
20260504014601 62 128 2.6 5.2 0.00 0.00 0.00 24 941.3
20260504014502 62 164 1.7 4.3 0.00 0.00 0.00 23 941.3
20260504013005 63 127 1.7 7.0 0.00 0.00 0.00 22 941.5
20260504011557 65 180 4.3 7.8 0.00 0.00 0.00 21 941.7
20260504011505 65 163 4.3 7.8 0.00 0.00 0.00 21 941.7
20260504010055 66 209 3.5 8.7 0.00 0.00 0.00 19 941.8